User: anonymous   Login
Location: Campillo
(40.8621°N, 4.2488°W)
Time: 22:36:33
(UTC+00:00)
Language:

USA 290 - Orbit

View from above orbital plane
View from above orbital plane
View from above satellite
View from above satellite

Ground track
Ground track

The orbit data is extracted from the following two-line orbital elements,

1 43941U 19004A   21191.90834963 0.00002100  00000-0  33082-4 0    07
2 43941  73.5818 233.5381 0007999  65.4134 294.5865 15.53408376    08
Epoch (UTC): 10 July 2021 21:48:01
Eccentricity: 0.0007999
inclination: 73.5818°
perigee height: 401 km
apogee height: 412 km
right ascension of ascending node: 233.5381°
argument of perigee: 65.4134°
revolutions per day: 15.53408376
mean anomaly at epoch: 294.5865°
orbit number at epoch: 0

The dashed part of the orbit path shows where the satellite is in the earth's shadow,  

DLR